{"data":{"norad_id":43484,"epoch":"2026-05-25T04:00:17.983584Z","epoch_age_seconds":50778,"freshness":"FRESH","line1":"1 43484U 18048A   26145.16687481  .00000269  00000+0  45485-4 0  9999","line2":"2 43484  97.7765 208.6932 0010616 247.3188 112.6900 14.76599378429994","mean_motion":14.76599378,"eccentricity":0.0010616,"inclination_deg":97.7765,"raan_deg":208.6932,"arg_perigee_deg":247.3188,"mean_anomaly_deg":112.69,"bstar":4.5485e-5,"rev_number":42999,"period_min":97.521373871255,"perigee_km":632.62830321849,"apogee_km":647.52937909243,"semimajor_km":7018.2158411555,"source":"CELESTRAK","updated_at":"2026-05-25T13:38:12.830465Z"}}